This is the latest recevied weather packets stored in our database for station/object DG9VH-13. If no packets are shown the sender has not sent any weather packets the latest 10 day(s).
| Time | Temp. | Humidity | Pressure | Rain* | Wind** | Luminosity | Snow |
|---|---|---|---|---|---|---|---|
| 1777460404 | 18.33° C | 35% | 1004.3 hPa | - | - | - | - |
| 1777459801 | 17.78° C | 35% | 1004.3 hPa | - | - | - | - |
| 1777459204 | 17.78° C | 35% | 1004.1 hPa | - | - | - | - |
| 1777458601 | 17.78° C | 36% | 1004.3 hPa | - | - | - | - |
| 1777458004 | 17.78° C | 35% | 1004.2 hPa | - | - | - | - |
| 1777457400 | 17.78° C | 35% | 1004.4 hPa | - | - | - | - |
| 1777456804 | 17.22° C | 35% | 1004.2 hPa | - | - | - | - |
| 1777456201 | 17.22° C | 36% | 1004.2 hPa | - | - | - | - |
| 1777455601 | 16.67° C | 36% | 1004.2 hPa | - | - | - | - |
| 1777455001 | 16.11° C | 36% | 1004.2 hPa | - | - | - | - |
| 1777454404 | 16.11° C | 35% | 1004.1 hPa | - | - | - | - |
| 1777453804 | 16.11° C | 36% | 1004.1 hPa | - | - | - | - |
| 1777453201 | 15.56° C | 37% | 1004 hPa | - | - | - | - |
| 1777452604 | 15.56° C | 37% | 1004.1 hPa | - | - | - | - |
| 1777452001 | 15° C | 37% | 1004.2 hPa | - | - | - | - |
| 1777451401 | 15° C | 37% | 1004.2 hPa | - | - | - | - |
| 1777450801 | 15° C | 37% | 1004.2 hPa | - | - | - | - |
| 1777450204 | 14.44° C | 37% | 1004.1 hPa | - | - | - | - |
| 1777449601 | 14.44° C | 37% | 1004.3 hPa | - | - | - | - |
| 1777449001 | 13.89° C | 38% | 1004.3 hPa | - | - | - | - |
| 1777448404 | 13.89° C | 37% | 1004.4 hPa | - | - | - | - |
| 1777447804 | 13.33° C | 37% | 1004.2 hPa | - | - | - | - |
| 1777447201 | 13.33° C | 38% | 1004.3 hPa | - | - | - | - |
| 1777446604 | 13.33° C | 37% | 1004.2 hPa | - | - | - | - |
| 1777446004 | 12.78° C | 38% | 1004.3 hPa | - | - | - | - |
* Rain since midnight (hover to see other rain measurements)
** Current wind speed in m/s (hover to see current wind gust speed)